Time,TemperatureF,DewpointF,PressureIn,WindDirection,WindDirectionDegrees,WindSpeedMPH,WindSpeedGustMPH,Humidity,HourlyPrecipIn,Conditions,Clouds,dailyrainin,SoftwareType,DateUTC
2013-01-27 00:08:00,13.1,7.0,30.31,NW,315,2.7,-999.0,76,-99.99,,,0.00,Acu-Link.com,2013-01-27 05:08:00,
2013-01-27 00:23:00,11.8,5.8,30.31,NW,315,1.6,-999.0,76,-99.99,,,0.00,Acu-Link.com,2013-01-27 05:23:00,
2013-01-27 00:38:00,11.3,6.1,30.31,NW,315,1.6,-999.0,79,-99.99,,,0.00,Acu-Link.com,2013-01-27 05:38:00,
2013-01-27 00:54:00,11.3,5.8,30.31,NW,315,2.7,-999.0,78,-99.99,,,0.00,Acu-Link.com,2013-01-27 05:54:00,
2013-01-27 01:09:00,10.4,5.7,30.31,NW,315,1.6,-999.0,81,-99.99,,,0.00,Acu-Link.com,2013-01-27 06:09:00,
2013-01-27 01:24:00,10.4,6.0,30.31,NW,315,1.6,-999.0,82,-99.99,,,0.00,Acu-Link.com,2013-01-27 06:24:00,
2013-01-27 01:40:00,9.9,5.8,30.32,NW,315,0.0,-999.0,83,-99.99,,,0.00,Acu-Link.com,2013-01-27 06:40:00,
2013-01-27 01:55:00,9.3,5.7,30.32,NW,315,0.0,-999.0,85,-99.99,,,0.00,Acu-Link.com,2013-01-27 06:55:00,
2013-01-27 02:25:00,9.9,6.3,30.33,NW,315,2.7,-999.0,85,-99.99,,,0.00,Acu-Link.com,2013-01-27 07:25:00,
2013-01-27 02:41:00,10.6,6.7,30.33,NW,315,1.1,-999.0,84,-99.99,,,0.00,Acu-Link.com,2013-01-27 07:41:00,
2013-01-27 02:56:00,10.4,7.1,30.34,NW,315,3.1,-999.0,86,-99.99,,,0.00,Acu-Link.com,2013-01-27 07:56:00,
2013-01-27 03:11:00,11.8,8.0,30.33,NW,315,2.7,-999.0,84,-99.99,,,0.00,Acu-Link.com,2013-01-27 08:11:00,
2013-01-27 03:27:00,12.2,8.0,30.34,NW,315,2.7,-999.0,83,-99.99,,,0.00,Acu-Link.com,2013-01-27 08:27:00,
2013-01-27 03:42:00,11.8,7.7,30.34,NW,315,2.7,-999.0,83,-99.99,,,0.00,Acu-Link.com,2013-01-27 08:42:00,
2013-01-27 03:57:00,12.0,8.4,30.34,NW,315,1.6,-999.0,85,-99.99,,,0.00,Acu-Link.com,2013-01-27 08:57:00,
2013-01-27 04:16:00,11.5,7.9,30.34,NW,315,2.7,-999.0,85,-99.99,,,0.00,Acu-Link.com,2013-01-27 09:16:00,
2013-01-27 04:31:00,11.3,7.9,30.34,NW,315,2.2,-999.0,86,-99.99,,,0.00,Acu-Link.com,2013-01-27 09:31:00,
2013-01-27 04:46:00,12.2,8.8,30.35,NW,315,2.2,-999.0,86,-99.99,,,0.00,Acu-Link.com,2013-01-27 09:46:00,
2013-01-27 05:02:00,11.5,8.4,30.34,NW,315,1.6,-999.0,87,-99.99,,,0.00,Acu-Link.com,2013-01-27 10:02:00,
2013-01-27 05:17:00,10.6,7.5,30.35,NW,315,0.0,-999.0,87,-99.99,,,0.00,Acu-Link.com,2013-01-27 10:17:00,
2013-01-27 05:32:00,9.3,6.5,30.36,NW,315,3.1,-999.0,88,-99.99,,,0.00,Acu-Link.com,2013-01-27 10:32:00,
2013-01-27 05:47:00,7.7,5.1,30.36,NW,315,0.0,-999.0,89,-99.99,,,0.00,Acu-Link.com,2013-01-27 10:47:00,
2013-01-27 06:03:00,7.3,5.0,30.37,NW,315,1.1,-999.0,90,-99.99,,,0.00,Acu-Link.com,2013-01-27 11:03:00,
2013-01-27 06:18:00,7.0,4.9,30.38,NW,315,1.1,-999.0,91,-99.99,,,0.00,Acu-Link.com,2013-01-27 11:18:00,
2013-01-27 06:33:00,6.4,4.4,30.38,NW,315,1.6,-999.0,91,-99.99,,,0.00,Acu-Link.com,2013-01-27 11:33:00,
2013-01-27 06:49:00,6.1,4.0,30.38,NW,315,1.1,-999.0,91,-99.99,,,0.00,Acu-Link.com,2013-01-27 11:49:00,
2013-01-27 07:04:00,6.6,5.0,30.39,NW,315,1.6,-999.0,93,-99.99,,,0.00,Acu-Link.com,2013-01-27 12:04:00,
2013-01-27 07:19:00,6.4,4.9,30.40,NW,315,3.1,-999.0,93,-99.99,,,0.00,Acu-Link.com,2013-01-27 12:19:00,
2013-01-27 07:34:00,6.3,4.7,30.40,NW,315,1.1,-999.0,93,-99.99,,,0.00,Acu-Link.com,2013-01-27 12:34:00,
2013-01-27 07:49:00,7.7,6.1,30.41,NW,315,1.1,-999.0,93,-99.99,,,0.00,Acu-Link.com,2013-01-27 12:49:00,
2013-01-27 08:05:00,8.8,6.9,30.42,NW,315,3.1,-999.0,92,-99.99,,,0.00,Acu-Link.com,2013-01-27 13:05:00,
2013-01-27 08:20:00,11.7,9.1,30.42,NW,315,2.7,-999.0,89,-99.99,,,0.00,Acu-Link.com,2013-01-27 13:20:00,
2013-01-27 08:35:00,14.4,11.0,30.43,NW,315,0.0,-999.0,86,-99.99,,,0.00,Acu-Link.com,2013-01-27 13:35:00,
2013-01-27 08:50:00,15.8,11.8,30.43,NW,315,2.7,-999.0,84,-99.99,,,0.00,Acu-Link.com,2013-01-27 13:50:00,
2013-01-27 09:06:00,17.6,13.1,30.43,NW,315,2.7,-999.0,82,-99.99,,,0.00,Acu-Link.com,2013-01-27 14:06:00,
2013-01-27 09:21:00,19.8,14.3,30.43,NW,315,3.1,-999.0,79,-99.99,,,0.00,Acu-Link.com,2013-01-27 14:21:00,
2013-01-27 09:36:00,21.4,13.5,30.44,NW,315,3.8,-999.0,71,-99.99,,,0.00,Acu-Link.com,2013-01-27 14:36:00,
2013-01-27 09:51:00,24.4,15.1,30.44,NW,315,2.7,-999.0,67,-99.99,,,0.00,Acu-Link.com,2013-01-27 14:51:00,
2013-01-27 10:07:00,25.5,13.6,30.46,NW,315,2.2,-999.0,60,-99.99,,,0.00,Acu-Link.com,2013-01-27 15:07:00,
2013-01-27 10:22:00,27.5,13.9,30.45,NW,315,3.8,-999.0,56,-99.99,,,0.00,Acu-Link.com,2013-01-27 15:22:00,
2013-01-27 10:37:00,29.7,10.5,30.45,North,0,2.2,-999.0,44,-99.99,,,0.00,Acu-Link.com,2013-01-27 15:37:00,
2013-01-27 10:52:00,29.5,8.7,30.46,NE,45,4.7,-999.0,41,-99.99,,,0.00,Acu-Link.com,2013-01-27 15:52:00,
2013-01-27 11:07:00,29.8,7.9,30.45,NNW,337,5.8,-999.0,39,-99.99,,,0.00,Acu-Link.com,2013-01-27 16:07:00,
2013-01-27 11:23:00,30.9,7.1,30.45,NNW,337,4.7,-999.0,36,-99.99,,,0.00,Acu-Link.com,2013-01-27 16:23:00,
2013-01-27 11:38:00,31.6,7.8,30.45,WNW,292,6.7,-999.0,36,-99.99,,,0.00,Acu-Link.com,2013-01-27 16:38:00,
2013-01-27 11:53:00,31.5,7.0,30.43,NNE,22,6.3,-999.0,35,-99.99,,,0.00,Acu-Link.com,2013-01-27 16:53:00,
2013-01-27 12:08:00,33.3,6.6,30.43,NW,315,7.4,-999.0,32,-99.99,,,0.00,Acu-Link.com,2013-01-27 17:08:00,
2013-01-27 12:23:00,34.0,5.8,30.43,NE,45,7.4,-999.0,30,-99.99,,,0.00,Acu-Link.com,2013-01-27 17:23:00,
2013-01-27 12:39:00,32.0,5.5,30.42,NE,45,8.3,-999.0,32,-99.99,,,0.00,Acu-Link.com,2013-01-27 17:39:00,
2013-01-27 12:54:00,33.8,6.4,30.41,NE,45,3.8,-999.0,31,-99.99,,,0.00,Acu-Link.com,2013-01-27 17:54:00,
2013-01-27 13:09:00,34.3,6.2,30.41,ENE,67,5.1,-999.0,30,-99.99,,,0.00,Acu-Link.com,2013-01-27 18:09:00,
2013-01-27 13:24:00,35.2,6.9,30.41,NNW,337,1.6,-999.0,30,-99.99,,,0.00,Acu-Link.com,2013-01-27 18:24:00,
2013-01-27 13:39:00,34.3,10.8,30.40,NE,45,8.3,-999.0,37,-99.99,,,0.00,Acu-Link.com,2013-01-27 18:39:00,
2013-01-27 13:55:00,33.4,9.4,30.40,NE,45,8.3,-999.0,36,-99.99,,,0.00,Acu-Link.com,2013-01-27 18:55:00,
2013-01-27 14:10:00,34.9,10.0,30.40,ESE,112,3.1,-999.0,35,-99.99,,,0.00,Acu-Link.com,2013-01-27 19:10:00,
2013-01-27 14:25:00,35.4,10.5,30.40,ESE,112,4.7,-999.0,35,-99.99,,,0.00,Acu-Link.com,2013-01-27 19:25:00,
2013-01-27 14:40:00,33.3,9.8,30.40,East,90,4.7,-999.0,37,-99.99,,,0.00,Acu-Link.com,2013-01-27 19:40:00,
2013-01-27 14:56:00,32.4,10.8,30.40,NE,45,4.3,-999.0,40,-99.99,,,0.00,Acu-Link.com,2013-01-27 19:56:00,
2013-01-27 15:11:00,31.8,10.3,30.40,ENE,67,3.8,-999.0,40,-99.99,,,0.00,Acu-Link.com,2013-01-27 20:11:00,
2013-01-27 15:26:00,31.6,9.6,30.40,East,90,3.8,-999.0,39,-99.99,,,0.00,Acu-Link.com,2013-01-27 20:26:00,
2013-01-27 15:41:00,31.5,8.8,30.40,East,90,3.8,-999.0,38,-99.99,,,0.00,Acu-Link.com,2013-01-27 20:41:00,
2013-01-27 15:56:00,31.5,8.8,30.40,South,180,3.1,-999.0,38,-99.99,,,0.00,Acu-Link.com,2013-01-27 20:56:00,
2013-01-27 16:12:00,31.3,9.8,30.42,NE,45,2.7,-999.0,40,-99.99,,,0.00,Acu-Link.com,2013-01-27 21:12:00,
2013-01-27 16:27:00,30.4,10.6,30.43,NE,45,3.1,-999.0,43,-99.99,,,0.00,Acu-Link.com,2013-01-27 21:27:00,
2013-01-27 16:42:00,29.1,10.5,30.43,NE,45,1.1,-999.0,45,-99.99,,,0.00,Acu-Link.com,2013-01-27 21:42:00,
2013-01-27 16:57:00,27.9,10.7,30.43,NE,45,1.1,-999.0,48,-99.99,,,0.00,Acu-Link.com,2013-01-27 21:57:00,
2013-01-27 17:12:00,27.7,11.0,30.42,NE,45,0.0,-999.0,49,-99.99,,,0.00,Acu-Link.com,2013-01-27 22:12:00,
2013-01-27 17:28:00,26.1,11.7,30.43,NE,45,0.0,-999.0,54,-99.99,,,0.00,Acu-Link.com,2013-01-27 22:28:00,
2013-01-27 17:43:00,24.8,11.4,30.43,NE,45,0.0,-999.0,56,-99.99,,,0.00,Acu-Link.com,2013-01-27 22:43:00,
2013-01-27 17:58:00,24.3,10.0,30.44,NE,45,2.2,-999.0,54,-99.99,,,0.00,Acu-Link.com,2013-01-27 22:58:00,
2013-01-27 18:13:00,23.2,11.0,30.43,NE,45,0.0,-999.0,59,-99.99,,,0.00,Acu-Link.com,2013-01-27 23:13:00,
2013-01-27 18:28:00,22.8,11.4,30.45,NE,45,0.0,-999.0,61,-99.99,,,0.00,Acu-Link.com,2013-01-27 23:28:00,
2013-01-27 18:44:00,22.5,10.3,30.45,NE,45,0.0,-999.0,59,-99.99,,,0.00,Acu-Link.com,2013-01-27 23:44:00,
2013-01-27 18:59:00,22.3,12.3,30.45,NE,45,0.0,-999.0,65,-99.99,,,0.00,Acu-Link.com,2013-01-27 23:59:00,
2013-01-27 19:14:00,21.4,14.7,30.44,NE,45,3.8,-999.0,75,-99.99,,,0.00,Acu-Link.com,2013-01-28 00:14:00,
2013-01-27 19:31:00,20.8,14.2,30.45,NE,45,0.0,-999.0,75,-99.99,,,0.00,Acu-Link.com,2013-01-28 00:31:00,
2013-01-27 19:47:00,20.1,12.9,30.45,NE,45,0.0,-999.0,73,-99.99,,,0.00,Acu-Link.com,2013-01-28 00:47:00,
2013-01-27 20:02:00,19.9,12.4,30.45,NE,45,0.0,-999.0,72,-99.99,,,0.00,Acu-Link.com,2013-01-28 01:02:00,
2013-01-27 20:17:00,19.6,13.6,30.45,NE,45,0.0,-999.0,77,-99.99,,,0.00,Acu-Link.com,2013-01-28 01:17:00,
2013-01-27 20:32:00,18.9,12.9,30.44,NE,45,0.0,-999.0,77,-99.99,,,0.00,Acu-Link.com,2013-01-28 01:32:00,
2013-01-27 20:48:00,18.3,11.4,30.44,NE,45,0.0,-999.0,74,-99.99,,,0.00,Acu-Link.com,2013-01-28 01:48:00,
2013-01-27 21:03:00,17.4,10.6,30.45,NE,45,0.0,-999.0,74,-99.99,,,0.00,Acu-Link.com,2013-01-28 02:03:00,
2013-01-27 21:18:00,17.2,10.7,30.45,NE,45,1.6,-999.0,75,-99.99,,,0.00,Acu-Link.com,2013-01-28 02:18:00,
2013-01-27 21:34:00,16.7,12.2,30.44,NE,45,0.0,-999.0,82,-99.99,,,0.00,Acu-Link.com,2013-01-28 02:34:00,
2013-01-27 21:49:00,16.5,10.6,30.45,NE,45,2.7,-999.0,77,-99.99,,,0.00,Acu-Link.com,2013-01-28 02:49:00,
2013-01-27 22:04:00,16.7,11.3,30.44,NE,45,1.1,-999.0,79,-99.99,,,0.00,Acu-Link.com,2013-01-28 03:04:00,
2013-01-27 22:19:00,16.0,11.2,30.44,NE,45,0.0,-999.0,81,-99.99,,,0.00,Acu-Link.com,2013-01-28 03:19:00,
2013-01-27 22:35:00,15.4,9.8,30.43,NE,45,1.6,-999.0,78,-99.99,,,0.00,Acu-Link.com,2013-01-28 03:35:00,
2013-01-27 22:50:00,15.8,12.1,30.43,NE,45,2.2,-999.0,85,-99.99,,,0.00,Acu-Link.com,2013-01-28 03:50:00,
2013-01-27 23:05:00,16.2,10.5,30.44,NE,45,0.0,-999.0,78,-99.99,,,0.00,Acu-Link.com,2013-01-28 04:05:00,
2013-01-27 23:21:00,15.3,9.9,30.44,NE,45,0.0,-999.0,79,-99.99,,,0.00,Acu-Link.com,2013-01-28 04:21:00,
2013-01-27 23:36:00,14.5,9.8,30.44,NE,45,0.0,-999.0,81,-99.99,,,0.00,Acu-Link.com,2013-01-28 04:36:00,
2013-01-27 23:51:00,14.5,8.7,30.45,NE,45,0.0,-999.0,77,-99.99,,,0.00,Acu-Link.com,2013-01-28 04:51:00,